z  +0.0000829      Peri.   47.05411     -0.18184136     +0.56553480

 +/-0.0000011      Node   237.46193     -0.91286864     +0.20700166

e   0.9995700      Incl.   72.59331     +0.36551958     +0.79832368

From 952 observations 2001 Apr. 30-2002 Aug. 25, mean residual 0".66.

   (1/a)org.= +0.000010, (1/a)fut.= -0.000095 (+/-0.000001), Q= 8.



NAKANO

         **** Don't distribute anyone except personal use only ****

                (C) Copyright 2002 OAA/ComputingSection

write mail from CFAD0::NAKANO on 2002-08-27 05:17:55(JST).

 



  ◎C/2001 K5の軌道と予報位置です



 10月の近日点通過を迎え,だいぶ明るくなりました.8月21日の CCD全光度

が豊中の江崎裕介氏より,14.7等と報告があります.実際には,もう少し明る

いでしょう.



    C/2001 K5 (LINEAR) 

Epoch 2002 Oct. 13.0 TT = JDT 2452560.5  

T 2002 Oct. 11.75372 TT                                 Nakano

q   5.1843039            (2000.0)            P               Q

z  +0.0000830      Peri.   47.05413     -0.18184122     +0.56553484

 +/-0.0000011      Node   237.46193     -0.91286859     +0.20700188

e   0.9995696      Incl.   72.59331     +0.36551978     +0.79832360

From 950 observations 2001 Apr. 30-2002 Aug. 21, mean residual 0".66.

   (1/a)org.= +0.000010, (1/a)fut.= -0.000094 (+/-0.000001), Q= 8.

 

Date/        TT  R.A.(2000) Decl.     Delta   r     Daily motion  Mag.  Moon Age

              h    h  m       。  ,                      ,  / PA 。  m1      。

2002 Aug. 25 12  16 16.97  +18 57.9   5.156  5.197     2.7 / 109  13.7  118  .94

          26 12  16 17.15  +18 57.0   5.168  5.196     2.8 / 109  13.7  126  .89

          27 12  16 17.33  +18 56.1   5.180  5.196     3.0 / 108  13.7  133  .82

          28 12  16 17.53  +18 55.2   5.192  5.195     3.2 / 107  13.7  138  .74

          29 12  16 17.75  +18 54.3   5.204  5.195     3.3 / 107  13.7  142  .65

          30 12  16 17.97  +18 53.3   5.216  5.194     3.5 / 106  13.7  142  .56

          31 12  16 18.21  +18 52.3   5.228  5.194     3.7 / 106  13.7  139  .46

     Sept. 1 12  16 18.46  +18 51.3   5.239  5.193     3.9 / 106  13.8  133  .36

           2 12  16 18.72  +18 50.2   5.251  5.193     4.0 / 105  13.8  125  .26

           3 12  16 19.00  +18 49.2   5.263  5.192     4.2 / 105  13.8  115  .17

           4 12  16 19.28  +18 48.1   5.274  5.192     4.3 / 104  13.8  105  .10

           5 12  16 19.58  +18 47.1   5.286  5.192     4.5 / 104  13.8   94  .04

           6 12  16 19.89  +18 46.0   5.297  5.191     4.7 / 103  13.8   82  .01

           7 12  16 20.21  +18 44.9   5.309  5.191     4.8 / 103  13.8   71  .00

           8 12  16 20.54  +18 43.8   5.320  5.190     5.0 / 103  13.8   60  .03

           9 12  16 20.88  +18 42.7   5.331  5.190     5.2 / 102  13.8   50  .08

          10 12  16 21.24  +18 41.6   5.343  5.190     5.3 / 102  13.8   43  .16

          11 12  16 21.60  +18 40.5   5.354  5.189     5.5 / 101  13.8   39  .26

          12 12  16 21.98  +18 39.4   5.365  5.189     5.6 / 101  13.8   39  .36

          13 12  16 22.36  +18 38.4   5.376  5.189     5.8 / 101  13.8   43  .47

          14 12  16 22.76  +18 37.3   5.387  5.188     5.9 / 100  13.8   50  .58

          15 12  16 23.17  +18 36.2   5.398  5.188     6.1 / 100  13.8   58  .68

          16 12  16 23.59  +18 35.1   5.409  5.188     6.2 / 100  13.8   67  .77

          17 12  16 24.02  +18 34.1   5.419  5.188     6.4 /  99  13.8   77  .85

          18 12  16 24.46  +18 33.1   5.430  5.187     6.5 /  99  13.8   86  .91

          19 12  16 24.91  +18 32.0   5.441  5.187     6.6 /  99  13.8   96  .96

          20 12  16 25.37  +18 31.0   5.451  5.187     6.8 /  98  13.8  105  .99

          21 12  16 25.85  +18 30.0   5.461  5.187     6.9 /  98  13.8  114 1.00

          22 12  16 26.33  +18 29.1   5.472  5.186     7.1 /  98  13.8  122  .99

          23 12  16 26.82  +18 28.1   5.482  5.186     7.2 /  97  13.8  129  .97

          24 12  16 27.32  +18 27.2   5.492  5.186     7.3 /  97  13.8  136  .92

          25 12  16 27.83  +18 26.3   5.502  5.186     7.5 /  97  13.9  140  .87

          26 12  16 28.35  +18 25.4   5.512  5.186     7.6 /  96  13.9  141  .80

          27 12  16 28.88  +18 24.6   5.521  5.185     7.7 /  96  13.9  140  .71

          28 12  16 29.42  +18 23.7   5.531  5.185     7.9 /  96  13.9  136  .62

          29 12  16 29.97  +18 22.9   5.541  5.185     8.0 /  95  13.9  129  .52

          30 12  16 30.53  +18 22.2   5.550  5.185     8.1 /  95  13.9  121  .42

     Oct.  1 12  16 31.09  +18 21.4   5.559  5.185     8.2 /  95  13.9  111  .31

NAKANO

         **** Don't distribute anyone except personal use only ****

                (C) Copyright 2002 OAA/ComputingSection

write mail from CFAD0::NAKANO on 2002-08-26 04:47:06(JST).

 

    C/2001 K5 (LINEAR) 

Epoch 2002 Oct. 13.0 TT = JDT 2452560.5  

T 2002 Oct. 11.77249 TT                                 Nakano

q   5.1842224            (2000.0)            P               Q

z  +0.0000757      Peri.   47.05679     -0.18181529     +0.56554364

 +/-0.0000019      Node   237.46190     -0.91285892     +0.20704393

e   0.9996076      Incl.   72.59330     +0.36555683     +0.79830646

From 544 observations 2001 Apr. 30-2002 June 22, mean residual 0".63.

   (1/a)org.= +0.000003, (1/a)fut.= -0.000102 (+/-0.000002), Q= 8.



NAKANO

         **** Don't distribute anyone except personal use only ****

                (C) Copyright 2002 OAA/ComputingSection

write mail from CFAD0::NAKANO on 2002-06-24 23:03:41(JST).

 





    C/2001 K5 (LINEAR) 

Epoch 2002 Oct. 13.0 TT = JDT 2452560.5  

T 2002 Oct. 11.77374 TT                                 Nakano

q   5.1842159            (2000.0)            P               Q

z  +0.0000814      Peri.   47.05676     -0.18181623     +0.56554258

 +/-0.0000026      Node   237.46191     -0.91285864     +0.20704410

e   0.9995781      Incl.   72.59339     +0.36555705     +0.79830717

From 363 observations 2001 Apr. 30-2002 May 21, mean residual 0".59.

   (1/a)org.= +0.000008, (1/a)fut.= -0.000096 (+/-0.000003), Q= 7.



         **** Don't distribute anyone except personal use only ****

                (C) Copyright 2002 OAA/ComputingSection

write mail from CFAD0::NAKANO on 2002-05-23 04:49:42(JST).

 



    C/2001 K5 (LINEAR) 

Epoch 2002 Oct. 13.0 TT = JDT 2452560.5  

T 2002 Oct. 11.76229 TT                                 Nakano

q   5.1842806            (2000.0)            P               Q

z  +0.0000892      Peri.   47.05486     -0.18183480     +0.56553615

 +/-0.0000029      Node   237.46194     -0.91286554     +0.20701410

e   0.9995376      Incl.   72.59340     +0.36553058     +0.79831950

From 304 observations 2001 Apr. 30-2002 Apr. 21, mean residual 0".58.

   (1/a)org.= +0.000016, (1/a)fut.= -0.000088 (+/-0.000003), Q= 7.



NAKANO

         **** Don't distribute anyone except personal use only ****

                (C) Copyright 2002 OAA/ComputingSection

write mail from CFAD0::NAKANO on 2002-04-26 05:07:08(JST).

 

    C/2001 K5 (LINEAR) 

Epoch 2002 Oct. 13.0 TT = JDT 2452560.5  

T 2002 Oct. 11.76408 TT                                 Nakano

q   5.1842745            (2000.0)            P               Q

z  +0.0000905      Peri.   47.05503     -0.18183386     +0.56553604

 +/-0.0000036      Node   237.46194     -0.91286465     +0.20701699

e   0.9995306      Incl.   72.59347     +0.36553328     +0.79831883

From 231 observations 2001 Apr. 30-2002 Feb. 19, mean residual 0".54.



NAKANO

         **** Don't distribute anyone except personal use only ****

                (C) Copyright 2002 OAA/ComputingSection

write mail from CFAD0::NAKANO on 2002-02-25 23:29:25(JST).

 

◎C/2001 K5の軌道と予報位置です



 昨年9月に行なわれた久万(中村彰正),ダイニック(杉江淳)の観測以後,

初めての観測が上尾の門田健一氏から報告されました.氏の CCD全光度は,2

月13日に15.7等,14日に15.5等でした.



    C/2001 K5 (LINEAR) 

Epoch 2002 Oct. 13.0 TT = JDT 2452560.5  

T 2002 Oct. 11.76324 TT                                 Nakano

q   5.1842879            (2000.0)            P               Q

z  +0.0000920      Peri.   47.05476     -0.18183640     +0.56553525

 +/-0.0000043      Node   237.46194     -0.91286566     +0.20701271

e   0.9995230      Incl.   72.59346     +0.36552950     +0.79832050

From 223 observations 2001 Apr. 30-2002 Feb. 14, mean residual 0".55.

 

Date/        TT  R.A.(2000) Decl.     Delta   r     Daily motion  Mag.  Moon Age

              h    h  m       。  ,                      ,  / PA 。  m1      。

2002 Feb. 15 18  16 59.77  -04 15.3   5.681  5.484    10.5 /  39  14.2  111  .10

          16 18  17 00.21  -04 07.1   5.663  5.482    10.5 /  38  14.2  122  .17

          17 18  17 00.64  -03 58.8   5.645  5.480    10.5 /  37  14.1  133  .24

          18 18  17 01.07  -03 50.5   5.628  5.477    10.5 /  36  14.1  143  .33

          19 18  17 01.48  -03 42.0   5.610  5.475    10.5 /  35  14.1  153  .42

          20 18  17 01.88  -03 33.5   5.592  5.472    10.5 /  34  14.1  160  .52

          21 18  17 02.28  -03 24.9   5.574  5.470    10.4 /  34  14.1  161  .63

          22 18  17 02.66  -03 16.2   5.557  5.468    10.4 /  33  14.1  155  .73

          23 18  17 03.04  -03 07.4   5.539  5.465    10.4 /  32  14.1  144  .82

          24 18  17 03.41  -02 58.5   5.521  5.463    10.4 /  31  14.1  131  .90

          25 18  17 03.76  -02 49.6   5.503  5.461    10.4 /  30  14.1  118  .96

          26 18  17 04.11  -02 40.5   5.485  5.458    10.4 /  29  14.1  104  .99

          27 18  17 04.45  -02 31.4   5.467  5.456    10.4 /  28  14.1   89 1.00

          28 18  17 04.77  -02 22.2   5.450  5.454    10.4 /  27  14.0   75  .97

     Mar.  1 18  17 05.09  -02 12.9   5.432  5.451    10.4 /  26  14.0   61  .91

           2 18  17 05.39  -02 03.5   5.414  5.449    10.5 /  25  14.0   48  .84

           3 18  17 05.69  -01 54.0   5.396  5.447    10.5 /  24  14.0   35  .74

           4 18  17 05.97  -01 44.4   5.379  5.444    10.5 /  23  14.0   26  .64

           5 18  17 06.24  -01 34.8   5.361  5.442    10.5 /  22  14.0   21  .53

           6 18  17 06.50  -01 25.1   5.343  5.440    10.5 /  21  14.0   23  .43

